START_TIME,STEP,MOV.,M34,t_acc.,L5,t_acc.,L18,t_acc.,L14,t_acc.
1979-07-18 15:00:24.610 ,1,0,0.,12.0,0.,12.0,0.,12.0,0.,12.0
1979-07-18 15:00:36.610 ,1,0,0.,12.0,0.,12.0,0.,12.0,0.,12.0
1979-07-18 15:00:48.610 ,2,1,0.,12.0,0.,12.0,0.,12.0,0.,12.0
1979-07-18 15:01:00.610 ,2,1,0.,12.0,0.,12.0,0.,12.0,0.,12.0
1979-07-18 15:01:12.610 ,2,0,0.,12.0,0.,12.0,0.,12.0,0.,12.0
1979-07-18 15:01:24.610 ,2,0,0.,12.0,0.,12.0,0.,12.0,0.,12.0
1979-07-18 15:02:24.610 ,0,0,0.,12.0,0.,12.0,0.,12.0,0.,12.0
1979-07-18 15:02:36.610 ,0,0,0.,12.0,0.,12.0,0.,12.0,0.,12.0
1979-07-18 15:02:48.610 ,0,0,0.,12.0,0.,12.0,0.,12.0,0.,12.0
1979-07-18 15:03:00.610 ,0,0,0.,12.0,0.,12.0,0.,12.0,0.,12.0
1979-07-18 15:03:12.610 ,5,1,0.,12.0,0.,12.0,0.,12.0,0.,12.0
1979-07-18 15:03:24.610 ,5,1,0.,12.0,0.,12.0,0.,12.0,0.,12.0
1979-07-18 15:03:36.610 ,5,0,0.,12.0,0.,12.0,0.,12.0,0.,12.0
1979-07-18 15:03:48.610 ,5,0,0.,12.0,0.,12.0,0.,12.0,0.,12.0
1979-07-18 15:04:00.610 ,6,1,0.,12.0,0.,12.0,0.,12.0,0.,12.0
1979-07-18 15:04:12.610 ,6,1,0.,12.0,0.,12.0,0.,12.0,0.,12.0
1979-07-18 15:04:24.610 ,6,0,0.,12.0,0.,12.0,0.,12.0,0.,12.0
1979-07-18 15:04:36.610 ,6,0,0.,12.0,0.,12.0,0.,12.0,0.,12.0
1979-07-18 15:04:48.610 ,7,1,0.,12.0,0.,12.0,0.,12.0,0.,12.0
1979-07-18 15:05:00.610 ,7,1,0.,12.0,0.,12.0,0.,12.0,0.,12.0
1979-07-18 15:05:12.610 ,7,0,0.,12.0,0.,12.0,0.,12.0,0.,12.0
1979-07-18 15:05:24.610 ,7,0,0.,12.0,0.,12.0,0.,12.0,0.,12.0
1979-07-18 15:05:36.610 ,7,1,0.,12.0,0.,12.0,0.,12.0,0.,12.0
1979-07-18 15:05:48.610 ,7,1,0.,12.0,0.,12.0,0.,12.0,0.,12.0
1979-07-18 15:06:00.610 ,7,0,0.,12.0,0.,12.0,0.,12.0,0.,12.0
1979-07-18 15:06:12.610 ,7,0,0.,12.0,0.,12.0,0.,12.0,0.,12.0
1979-07-18 15:06:24.610 ,6,1,0.,12.0,0.,12.0,0.,12.0,0.,12.0
1979-07-18 15:06:36.610 ,6,1,0.,12.0,0.,12.0,0.,12.0,0.,12.0
1979-07-18 15:06:48.610 ,6,0,0.,12.0,0.,12.0,0.,12.0,0.,12.0
1979-07-18 15:07:00.610 ,6,0,0.,12.0,0.,12.0,0.,12.0,0.,12.0
1979-07-18 15:07:12.610 ,5,1,0.,12.0,0.,12.0,0.,12.0,0.,12.0
1979-07-18 15:07:24.610 ,5,1,0.,12.0,0.,12.0,0.,12.0,0.,12.0
1979-07-18 15:07:36.610 ,5,0,0.,12.0,0.,12.0,0.,12.0,0.,12.0
1979-07-18 15:07:48.610 ,5,0,0.,12.0,0.,12.0,0.,12.0,0.,12.0
1979-07-18 15:08:00.610 ,4,1,0.,12.0,0.,12.0,0.,12.0,0.,12.0
1979-07-18 15:08:12.610 ,4,1,0.,12.0,0.,12.0,0.,12.0,0.,12.0
1979-07-18 15:08:24.610 ,4,0,0.,12.0,0.,12.0,0.,12.0,0.,12.0
1979-07-18 15:08:36.610 ,4,0,0.,12.0,0.,12.0,0.,12.0,0.,12.0
1979-07-18 15:08:48.610 ,3,1,0.,12.0,0.,12.0,0.,12.0,0.,12.0
1979-07-18 15:09:00.610 ,3,1,0.,12.0,0.,12.0,0.,12.0,0.,12.0
1979-07-18 15:09:12.610 ,3,0,0.,12.0,0.,12.0,0.,12.0,0.,12.0
1979-07-18 15:09:24.610 ,3,0,0.,12.0,0.,12.0,0.,12.0,0.,12.0
1979-07-18 15:09:36.610 ,2,1,0.,12.0,0.,12.0,0.,12.0,0.,12.0
1979-07-18 15:09:48.610 ,2,1,0.,12.0,0.,12.0,0.,12.0,0.,12.0
1979-07-18 15:10:00.610 ,2,0,0.,12.0,0.,12.0,0.,12.0,0.,12.0
1979-07-18 15:10:12.610 ,2,0,0.,12.0,0.,12.0,0.,12.0,0.,12.0
1979-07-18 15:10:24.610 ,1,1,0.,12.0,0.,12.0,0.,12.0,0.,12.0
1979-07-18 15:10:36.610 ,1,1,0.,12.0,0.,12.0,0.,12.0,0.,12.0
1979-07-18 15:10:48.610 ,1,0,0.,12.0,0.,12.0,0.,12.0,0.,12.0
1979-07-18 15:11:00.610 ,1,0,0.,12.0,0.,12.0,0.,12.0,0.,12.0
1979-07-18 15:11:12.610 ,0,1,0.,12.0,0.,12.0,0.,12.0,0.,12.0
1979-07-18 15:11:24.610 ,0,1,0.,12.0,0.,12.0,0.,12.0,0.,12.0
1979-07-18 15:11:36.610 ,0,0,0.,12.0,0.,12.0,0.,12.0,0.,12.0
1979-07-18 15:11:48.610 ,0,0,0.,12.0,0.,12.0,0.,12.0,0.,12.0
1979-07-18 15:12:00.610 ,0,1,0.,12.0,0.,12.0,0.,12.0,0.,12.0
1979-07-18 15:12:12.610 ,0,1,0.,12.0,0.,12.0,0.,12.0,0.,12.0
1979-07-18 15:12:24.610 ,0,0,0.,12.0,0.,12.0,0.,12.0,0.,12.0
1979-07-18 15:12:36.610 ,0,0,0.,12.0,0.,12.0,0.,12.0,0.,12.0
1979-07-18 15:12:48.610 ,1,1,0.,12.0,0.,12.0,0.,12.0,0.,12.0
1979-07-18 15:13:00.610 ,1,1,0.,12.0,0.,12.0,0.,12.0,0.,12.0
1979-07-18 15:13:12.610 ,1,0,0.,12.0,0.,12.0,0.,12.0,0.,12.0
1979-07-18 15:13:24.610 ,1,0,0.,12.0,0.,12.0,0.,12.0,0.,12.0
1979-07-18 15:13:36.610 ,2,1,0.,12.0,0.,12.0,0.,12.0,0.,12.0
1979-07-18 15:13:48.610 ,2,1,0.,12.0,0.,12.0,0.,12.0,0.,12.0
1979-07-18 15:14:00.610 ,2,0,0.,12.0,0.,12.0,0.,12.0,0.,12.0
1979-07-18 15:14:12.610 ,2,0,0.,12.0,0.,12.0,0.,12.0,0.,12.0
1979-07-18 15:14:24.610 ,3,1,0.,12.0,0.,12.0,0.,12.0,0.,12.0
1979-07-18 15:14:36.610 ,3,1,0.,12.0,0.,12.0,0.,12.0,0.,12.0
1979-07-18 15:14:48.610 ,3,0,0.,12.0,0.,12.0,0.,12.0,0.,12.0
1979-07-18 15:15:00.610 ,3,0,0.,12.0,0.,12.0,0.,12.0,0.,12.0
1979-07-18 15:15:12.610 ,4,1,0.,12.0,0.,12.0,0.,12.0,0.,12.0
1979-07-18 15:15:24.610 ,4,1,0.,12.0,0.,12.0,0.,12.0,0.,12.0
1979-07-18 15:15:36.610 ,4,0,0.,12.0,0.,12.0,0.,12.0,0.,12.0
1979-07-18 15:15:48.610 ,4,0,0.,12.0,0.,12.0,0.,12.0,0.,12.0
1979-07-18 15:16:00.610 ,5,1,0.,12.0,0.,12.0,0.,12.0,0.,12.0
1979-07-18 15:16:12.610 ,5,1,0.,12.0,0.,12.0,0.,12.0,0.,12.0
1979-07-18 15:16:24.610 ,5,0,0.,12.0,0.,12.0,0.,12.0,0.,12.0
1979-07-18 15:16:36.610 ,5,0,0.,12.0,0.,12.0,0.,12.0,0.,12.0
1979-07-18 15:16:48.610 ,6,1,0.,12.0,0.,12.0,0.,12.0,0.,12.0
1979-07-18 15:17:00.610 ,6,1,0.,12.0,0.,12.0,0.,12.0,0.,12.0
1979-07-18 15:17:12.610 ,6,0,0.,12.0,0.,12.0,0.,12.0,0.,12.0
1979-07-18 15:17:24.610 ,6,0,0.,12.0,0.,12.0,0.,12.0,0.,12.0
1979-07-18 15:17:36.610 ,7,1,0.,12.0,0.,12.0,0.,12.0,0.,12.0
1979-07-18 15:17:48.610 ,7,1,0.,12.0,0.,12.0,0.,12.0,0.,12.0
1979-07-18 15:18:00.610 ,7,0,0.,12.0,0.,12.0,0.,12.0,0.,12.0
1979-07-18 15:18:12.610 ,7,0,0.,12.0,0.,12.0,0.,12.0,0.,12.0
1979-07-18 15:18:24.610 ,7,1,0.,12.0,0.,12.0,0.,12.0,0.,12.0
1979-07-18 15:18:36.610 ,7,1,0.,12.0,0.,12.0,0.,12.0,0.,12.0
1979-07-18 15:18:48.610 ,7,0,0.,12.0,0.,12.0,0.,12.0,0.,12.0
1979-07-18 15:19:00.610 ,7,0,0.,12.0,0.,12.0,0.,12.0,0.,12.0
1979-07-18 15:19:12.610 ,6,1,0.,12.0,0.,12.0,0.,12.0,0.,12.0
1979-07-18 15:19:24.610 ,6,1,0.,12.0,0.,12.0,0.,12.0,0.,12.0
1979-07-18 15:19:36.610 ,6,0,0.,12.0,0.,12.0,0.,12.0,0.,12.0
1979-07-18 15:19:48.610 ,6,0,0.,12.0,0.,12.0,0.,12.0,0.,12.0
1979-07-18 15:20:00.610 ,5,1,0.,12.0,0.,12.0,0.,12.0,0.,12.0
1979-07-18 15:20:12.610 ,5,1,0.,12.0,0.,12.0,0.,12.0,0.,12.0
1979-07-18 15:20:24.610 ,5,0,0.,12.0,0.,12.0,0.,12.0,0.,12.0
1979-07-18 15:20:36.610 ,5,0,0.,12.0,0.,12.0,0.,12.0,0.,12.0
1979-07-18 15:20:48.610 ,4,1,0.,12.0,0.,12.0,0.,12.0,0.,12.0
1979-07-18 15:21:00.610 ,4,1,0.,12.0,0.,12.0,0.,12.0,0.,12.0
1979-07-18 15:21:12.610 ,4,0,1.,12.0,0.,12.0,0.,12.0,0.,12.0
1979-07-18 15:21:24.610 ,4,0,0.,12.0,0.,12.0,0.,12.0,0.,12.0
1979-07-18 15:21:36.610 ,3,1,0.,12.0,0.,12.0,0.,12.0,0.,12.0
1979-07-18 15:21:48.610 ,3,1,0.,12.0,0.,12.0,0.,12.0,0.,12.0
1979-07-18 15:22:00.610 ,3,0,0.,12.0,0.,12.0,0.,12.0,0.,12.0
1979-07-18 15:22:12.610 ,3,0,0.,12.0,0.,12.0,0.,12.0,0.,12.0
1979-07-18 15:22:24.610 ,2,1,0.,12.0,0.,12.0,0.,12.0,0.,12.0
1979-07-18 15:22:36.610 ,2,1,0.,12.0,0.,12.0,0.,12.0,0.,12.0
1979-07-18 15:22:48.610 ,2,0,0.,12.0,0.,12.0,0.,12.0,0.,12.0
1979-07-18 15:23:00.610 ,2,0,0.,12.0,0.,12.0,0.,12.0,0.,12.0
1979-07-18 15:23:12.610 ,1,1,0.,12.0,0.,12.0,0.,12.0,0.,12.0
1979-07-18 15:23:24.610 ,1,1,0.,12.0,0.,12.0,0.,12.0,0.,12.0
1979-07-18 15:23:36.610 ,1,0,0.,12.0,0.,12.0,0.,12.0,0.,12.0
1979-07-18 15:23:48.610 ,1,0,0.,12.0,0.,12.0,0.,12.0,0.,12.0
1979-07-18 15:24:00.610 ,0,1,0.,12.0,0.,12.0,0.,12.0,0.,12.0
1979-07-18 15:24:12.610 ,0,1,0.,12.0,0.,12.0,0.,12.0,0.,12.0
1979-07-18 15:24:24.610 ,0,0,0.,12.0,0.,12.0,0.,12.0,0.,12.0
1979-07-18 15:24:36.610 ,0,0,0.,12.0,0.,12.0,0.,12.0,0.,12.0
1979-07-18 15:24:48.610 ,0,1,0.,12.0,0.,12.0,0.,12.0,0.,12.0
1979-07-18 15:25:00.610 ,0,1,0.,12.0,0.,12.0,0.,12.0,0.,12.0
1979-07-18 15:25:12.610 ,0,0,0.,12.0,0.,12.0,0.,12.0,0.,12.0
1979-07-18 15:25:24.610 ,0,0,0.,12.0,0.,12.0,0.,12.0,0.,12.0
1979-07-18 15:25:36.610 ,1,1,0.,12.0,0.,12.0,0.,12.0,0.,12.0
1979-07-18 15:25:48.610 ,1,1,0.,12.0,0.,12.0,0.,12.0,0.,12.0
1979-07-18 15:26:00.610 ,1,0,0.,12.0,0.,12.0,0.,12.0,0.,12.0
1979-07-18 15:26:12.610 ,1,0,1.,12.0,0.,12.0,0.,12.0,0.,12.0
1979-07-18 15:26:24.610 ,2,1,0.,12.0,0.,12.0,0.,12.0,0.,12.0
1979-07-18 15:26:36.610 ,2,1,0.,12.0,0.,12.0,0.,12.0,0.,12.0
1979-07-18 15:26:48.610 ,2,0,0.,12.0,0.,12.0,0.,12.0,0.,12.0
1979-07-18 15:27:00.610 ,2,0,0.,12.0,0.,12.0,0.,12.0,0.,12.0
1979-07-18 15:27:12.610 ,3,1,0.,12.0,0.,12.0,0.,12.0,0.,12.0
1979-07-18 15:27:24.610 ,3,1,0.,12.0,0.,12.0,0.,12.0,0.,12.0
1979-07-18 15:27:36.610 ,3,0,0.,12.0,0.,12.0,0.,12.0,0.,12.0
1979-07-18 15:27:48.610 ,3,0,0.,12.0,0.,12.0,0.,12.0,0.,12.0
1979-07-18 15:28:00.610 ,4,1,0.,12.0,0.,12.0,0.,12.0,0.,12.0
1979-07-18 15:28:12.610 ,4,1,0.,12.0,0.,12.0,0.,12.0,0.,12.0
1979-07-18 15:28:24.610 ,4,0,0.,12.0,0.,12.0,0.,12.0,0.,12.0
1979-07-18 15:28:36.610 ,4,0,0.,12.0,0.,12.0,0.,12.0,0.,12.0
1979-07-18 15:28:48.610 ,5,1,0.,12.0,0.,12.0,0.,12.0,0.,12.0
1979-07-18 15:29:00.610 ,5,1,0.,12.0,0.,12.0,0.,12.0,0.,12.0
1979-07-18 15:29:12.610 ,5,0,0.,12.0,0.,12.0,0.,12.0,0.,12.0
1979-07-18 15:29:24.610 ,5,0,0.,12.0,0.,12.0,0.,12.0,0.,12.0
1979-07-18 15:29:36.610 ,6,1,0.,12.0,0.,12.0,0.,12.0,0.,12.0
1979-07-18 15:29:48.610 ,6,1,0.,12.0,0.,12.0,0.,12.0,0.,12.0
1979-07-18 15:30:00.610 ,6,0,0.,12.0,0.,12.0,0.,12.0,0.,12.0
1979-07-18 15:30:12.610 ,6,0,0.,12.0,0.,12.0,0.,12.0,0.,12.0
1979-07-18 15:30:24.610 ,7,0,0.,12.0,0.,12.0,0.,12.0,0.,12.0
1979-07-18 15:30:36.610 ,7,0,0.,12.0,0.,12.0,0.,12.0,0.,12.0
1979-07-18 15:30:48.610 ,7,0,0.,12.0,0.,12.0,0.,12.0,0.,12.0
1979-07-18 15:31:00.610 ,7,0,0.,12.0,0.,12.0,0.,12.0,0.,12.0
1979-07-18 15:31:12.610 ,4,1,0.,12.0,0.,12.0,0.,12.0,0.,12.0
1979-07-18 15:31:24.610 ,4,1,0.,12.0,0.,12.0,0.,12.0,0.,12.0
1979-07-18 15:31:36.610 ,0,1,0.,12.0,0.,12.0,0.,12.0,0.,12.0
1979-07-18 15:31:48.610 ,0,1,0.,12.0,0.,12.0,0.,12.0,0.,12.0
1979-07-18 15:32:00.610 ,3,1,0.,12.0,0.,12.0,0.,12.0,0.,12.0
1979-07-18 15:32:12.610 ,3,1,0.,12.0,0.,12.0,0.,12.0,0.,12.0
1979-07-18 15:32:24.610 ,7,1,0.,12.0,0.,12.0,0.,12.0,0.,12.0
1979-07-18 15:32:36.610 ,7,1,0.,12.0,0.,12.0,0.,12.0,0.,12.0
1979-07-18 15:32:48.610 ,4,1,0.,12.0,0.,12.0,0.,12.0,0.,12.0
1979-07-18 15:33:00.610 ,4,1,0.,12.0,0.,12.0,0.,12.0,0.,12.0
1979-07-18 15:33:12.610 ,0,1,0.,12.0,0.,12.0,0.,12.0,0.,12.0
1979-07-18 15:33:24.610 ,0,1,0.,12.0,0.,12.0,0.,12.0,0.,12.0
1979-07-18 15:33:36.610 ,3,1,0.,12.0,0.,12.0,0.,12.0,0.,12.0
1979-07-18 15:33:48.610 ,3,1,0.,12.0,0.,12.0,0.,12.0,0.,12.0
1979-07-18 15:34:00.610 ,7,1,1.,12.0,0.,12.0,0.,12.0,0.,12.0
1979-07-18 15:34:12.610 ,7,1,0.,12.0,0.,12.0,0.,12.0,0.,12.0
1979-07-18 15:34:24.610 ,4,1,0.,12.0,0.,12.0,0.,12.0,0.,12.0
1979-07-18 15:34:36.610 ,4,1,1.,12.0,0.,12.0,0.,12.0,0.,12.0
1979-07-18 15:34:48.610 ,0,1,0.,12.0,0.,12.0,0.,12.0,0.,12.0
1979-07-18 15:35:00.610 ,0,1,0.,12.0,0.,12.0,0.,12.0,0.,12.0
1979-07-18 15:35:12.610 ,3,1,0.,12.0,0.,12.0,0.,12.0,0.,12.0
1979-07-18 15:35:24.610 ,3,1,0.,12.0,0.,12.0,0.,12.0,0.,12.0
1979-07-18 15:35:36.610 ,7,1,0.,12.0,0.,12.0,0.,12.0,0.,12.0
1979-07-18 15:35:48.610 ,7,1,0.,12.0,0.,12.0,0.,12.0,0.,12.0
1979-07-18 15:36:48.610 ,0,0,0.,12.0,0.,12.0,0.,12.0,0.,12.0
1979-07-18 15:37:00.610 ,0,0,0.,12.0,0.,12.0,0.,12.0,0.,12.0
1979-07-18 15:37:12.610 ,7,1,0.,12.0,0.,12.0,0.,12.0,0.,12.0
1979-07-18 15:37:24.610 ,7,1,0.,12.0,0.,12.0,0.,12.0,0.,12.0
1979-07-18 15:37:36.610 ,4,1,0.,12.0,0.,12.0,0.,12.0,0.,12.0
1979-07-18 15:37:48.610 ,4,1,0.,12.0,0.,12.0,0.,12.0,0.,12.0
1979-07-18 15:38:00.610 ,0,1,0.,12.0,0.,12.0,0.,12.0,0.,12.0
1979-07-18 15:38:12.610 ,0,1,0.,12.0,0.,12.0,0.,12.0,0.,12.0
1979-07-18 15:38:24.610 ,3,1,0.,12.0,0.,12.0,0.,12.0,0.,12.0
1979-07-18 15:38:36.610 ,3,1,0.,12.0,0.,12.0,0.,12.0,0.,12.0
1979-07-18 15:38:48.610 ,7,1,0.,12.0,0.,12.0,0.,12.0,0.,12.0
1979-07-18 15:39:00.610 ,7,1,0.,12.0,0.,12.0,0.,12.0,0.,12.0
1979-07-18 15:39:12.610 ,4,1,0.,12.0,0.,12.0,0.,12.0,0.,12.0
1979-07-18 15:39:24.610 ,4,1,0.,12.0,0.,12.0,0.,12.0,0.,12.0
1979-07-18 15:39:36.610 ,0,1,0.,12.0,0.,12.0,0.,12.0,0.,12.0
1979-07-18 15:39:48.610 ,0,1,0.,12.0,0.,12.0,0.,12.0,0.,12.0
1979-07-18 15:40:00.610 ,3,1,0.,12.0,0.,12.0,0.,12.0,0.,12.0
1979-07-18 15:40:12.610 ,3,1,0.,12.0,0.,12.0,0.,12.0,0.,12.0
1979-07-18 15:40:24.610 ,7,1,0.,12.0,0.,12.0,0.,12.0,0.,12.0
1979-07-18 15:40:36.610 ,7,1,0.,12.0,0.,12.0,0.,12.0,0.,12.0
1979-07-18 15:40:48.610 ,4,1,0.,12.0,0.,12.0,0.,12.0,0.,12.0
1979-07-18 15:41:00.610 ,4,1,0.,12.0,0.,12.0,0.,12.0,0.,12.0
1979-07-18 15:41:12.610 ,0,1,0.,12.0,0.,12.0,0.,12.0,0.,12.0
1979-07-18 15:41:24.610 ,0,1,1.,12.0,0.,12.0,0.,12.0,0.,12.0
1979-07-18 15:41:36.610 ,0,0,0.,12.0,0.,12.0,0.,12.0,0.,12.0
1979-07-18 15:41:48.610 ,0,0,0.,12.0,0.,12.0,0.,12.0,0.,12.0
1979-07-18 15:42:00.610 ,0,0,0.,12.0,0.,12.0,0.,12.0,0.,12.0
1979-07-18 15:42:12.610 ,0,0,0.,12.0,0.,12.0,0.,12.0,0.,12.0
1979-07-18 15:42:24.610 ,5,1,0.,12.0,0.,12.0,0.,12.0,0.,12.0
1979-07-18 15:42:36.610 ,5,1,0.,12.0,0.,12.0,0.,12.0,0.,12.0
1979-07-18 15:42:48.610 ,5,0,0.,12.0,0.,12.0,0.,12.0,0.,12.0
1979-07-18 15:43:00.610 ,5,0,0.,12.0,0.,12.0,0.,12.0,0.,12.0
1979-07-18 15:43:12.610 ,4,1,0.,12.0,0.,12.0,0.,12.0,0.,12.0
1979-07-18 15:43:24.610 ,4,1,0.,12.0,0.,12.0,0.,12.0,0.,12.0
1979-07-18 15:43:36.610 ,4,0,0.,12.0,0.,12.0,0.,12.0,0.,12.0
1979-07-18 15:43:48.610 ,4,0,0.,12.0,0.,12.0,0.,12.0,0.,12.0
1979-07-18 15:44:00.610 ,3,1,0.,12.0,0.,12.0,0.,12.0,0.,12.0
1979-07-18 15:44:12.610 ,3,1,0.,12.0,0.,12.0,0.,12.0,0.,12.0
1979-07-18 15:44:24.610 ,3,0,0.,12.0,0.,12.0,0.,12.0,0.,12.0
1979-07-18 15:44:36.610 ,3,0,1.,12.0,0.,12.0,0.,12.0,0.,12.0
1979-07-18 15:44:48.610 ,2,1,0.,12.0,0.,12.0,0.,12.0,0.,12.0
1979-07-18 15:45:00.610 ,2,1,0.,12.0,0.,12.0,0.,12.0,0.,12.0
1979-07-18 15:45:12.610 ,2,0,0.,12.0,0.,12.0,0.,12.0,0.,12.0
1979-07-18 15:45:24.610 ,2,0,0.,12.0,0.,12.0,0.,12.0,0.,12.0
1979-07-18 15:45:36.610 ,1,1,0.,12.0,0.,12.0,0.,12.0,0.,12.0
1979-07-18 15:45:48.610 ,1,1,0.,12.0,0.,12.0,0.,12.0,0.,12.0
1979-07-18 15:46:00.610 ,1,0,0.,12.0,0.,12.0,0.,12.0,0.,12.0
1979-07-18 15:46:12.610 ,1,0,0.,12.0,0.,12.0,0.,12.0,0.,12.0
1979-07-18 15:46:24.610 ,0,1,0.,12.0,0.,12.0,0.,12.0,0.,12.0
1979-07-18 15:46:36.610 ,0,1,0.,12.0,0.,12.0,0.,12.0,0.,12.0
1979-07-18 15:46:48.610 ,0,0,0.,12.0,0.,12.0,0.,12.0,0.,12.0
1979-07-18 15:47:00.610 ,0,0,0.,12.0,0.,12.0,0.,12.0,0.,12.0
1979-07-18 15:47:27.010 ,0,0,,0,,0,,0,,0
1979-07-18 15:47:39.010 ,0,0,,0,,0,,0,,0
1979-07-18 15:47:36.610 ,0,0,0.,12.0,0.,12.0,0.,12.0,0.,12.0
1979-07-18 15:47:48.610 ,0,0,0.,12.0,0.,12.0,0.,12.0,0.,12.0
1979-07-18 15:48:00.610 ,1,1,0.,12.0,0.,12.0,0.,12.0,0.,12.0
1979-07-18 15:48:12.610 ,1,1,0.,12.0,0.,12.0,0.,12.0,0.,12.0
1979-07-18 15:48:24.610 ,1,0,0.,12.0,0.,12.0,0.,12.0,0.,12.0
1979-07-18 15:48:36.610 ,1,0,0.,12.0,0.,12.0,0.,12.0,0.,12.0
1979-07-18 15:49:36.610 ,0,0,0.,12.0,0.,12.0,0.,12.0,0.,12.0
1979-07-18 15:49:48.610 ,0,0,0.,12.0,0.,12.0,0.,12.0,0.,12.0
1979-07-18 15:50:00.610 ,0,0,0.,12.0,0.,12.0,0.,12.0,0.,12.0
1979-07-18 15:50:12.610 ,0,0,0.,12.0,0.,12.0,0.,12.0,0.,12.0
1979-07-18 15:50:24.610 ,4,1,1.,12.0,0.,12.0,0.,12.0,0.,12.0
1979-07-18 15:50:36.610 ,4,1,0.,12.0,0.,12.0,0.,12.0,0.,12.0
1979-07-18 15:50:48.610 ,4,0,0.,12.0,0.,12.0,0.,12.0,0.,12.0
1979-07-18 15:51:00.610 ,4,0,0.,12.0,0.,12.0,0.,12.0,0.,12.0
1979-07-18 15:51:12.610 ,5,1,0.,12.0,0.,12.0,0.,12.0,0.,12.0
1979-07-18 15:51:24.610 ,5,1,0.,12.0,0.,12.0,0.,12.0,0.,12.0
1979-07-18 15:51:36.610 ,5,0,0.,12.0,0.,12.0,0.,12.0,0.,12.0
1979-07-18 15:51:48.610 ,5,0,0.,12.0,0.,12.0,0.,12.0,0.,12.0
1979-07-18 15:52:00.610 ,6,1,0.,12.0,0.,12.0,0.,12.0,0.,12.0
1979-07-18 15:52:12.610 ,6,1,0.,12.0,0.,12.0,0.,12.0,0.,12.0
1979-07-18 15:52:24.610 ,6,0,0.,12.0,0.,12.0,0.,12.0,0.,12.0
1979-07-18 15:52:36.610 ,6,0,0.,12.0,0.,12.0,0.,12.0,0.,12.0
1979-07-18 15:52:48.610 ,7,1,0.,12.0,0.,12.0,0.,12.0,0.,12.0
1979-07-18 15:53:00.610 ,7,1,0.,12.0,0.,12.0,0.,12.0,0.,12.0
1979-07-18 15:53:12.610 ,7,0,0.,12.0,0.,12.0,0.,12.0,0.,12.0
1979-07-18 15:53:24.610 ,7,0,0.,12.0,0.,12.0,0.,12.0,0.,12.0
1979-07-18 15:53:36.610 ,7,1,0.,12.0,0.,12.0,0.,12.0,0.,12.0
1979-07-18 15:53:48.610 ,7,1,0.,12.0,0.,12.0,0.,12.0,0.,12.0
1979-07-18 15:54:00.610 ,7,0,0.,12.0,0.,12.0,0.,12.0,0.,12.0
1979-07-18 15:54:12.610 ,7,0,0.,12.0,0.,12.0,0.,12.0,0.,12.0
1979-07-18 15:54:24.610 ,6,1,0.,12.0,0.,12.0,0.,12.0,0.,12.0
1979-07-18 15:54:36.610 ,6,1,0.,12.0,0.,12.0,0.,12.0,0.,12.0
1979-07-18 15:54:48.610 ,6,0,0.,12.0,0.,12.0,0.,12.0,0.,12.0
1979-07-18 15:55:00.610 ,6,0,0.,12.0,0.,12.0,0.,12.0,0.,12.0
1979-07-18 15:55:12.610 ,5,1,0.,12.0,0.,12.0,0.,12.0,0.,12.0
1979-07-18 15:55:24.610 ,5,1,0.,12.0,0.,12.0,0.,12.0,0.,12.0
1979-07-18 15:55:36.610 ,5,0,0.,12.0,0.,12.0,0.,12.0,0.,12.0
1979-07-18 15:55:48.610 ,5,0,0.,12.0,0.,12.0,0.,12.0,0.,12.0
1979-07-18 15:56:00.610 ,4,1,0.,12.0,0.,12.0,0.,12.0,0.,12.0
1979-07-18 15:56:12.610 ,4,1,0.,12.0,0.,12.0,0.,12.0,0.,12.0
1979-07-18 15:56:24.610 ,4,0,0.,12.0,0.,12.0,0.,12.0,0.,12.0
1979-07-18 15:56:36.610 ,4,0,0.,12.0,0.,12.0,0.,12.0,0.,12.0
1979-07-18 15:56:48.610 ,3,1,0.,12.0,0.,12.0,0.,12.0,0.,12.0
1979-07-18 15:57:00.610 ,3,1,1.,12.0,0.,12.0,0.,12.0,0.,12.0
1979-07-18 15:57:12.610 ,3,0,0.,12.0,0.,12.0,0.,12.0,0.,12.0
1979-07-18 15:57:24.610 ,3,0,0.,12.0,0.,12.0,0.,12.0,0.,12.0
1979-07-18 15:57:36.610 ,2,1,0.,12.0,0.,12.0,0.,12.0,0.,12.0
1979-07-18 15:57:48.610 ,2,1,0.,12.0,0.,12.0,0.,12.0,0.,12.0
1979-07-18 15:58:00.610 ,2,0,0.,12.0,0.,12.0,0.,12.0,0.,12.0
1979-07-18 15:58:12.610 ,2,0,0.,12.0,0.,12.0,0.,12.0,0.,12.0
1979-07-18 15:58:24.610 ,1,1,0.,12.0,0.,12.0,0.,12.0,0.,12.0
1979-07-18 15:58:36.610 ,1,1,0.,12.0,0.,12.0,0.,12.0,0.,12.0
1979-07-18 15:58:48.610 ,1,0,0.,12.0,0.,12.0,0.,12.0,0.,12.0
1979-07-18 15:59:00.610 ,1,0,0.,12.0,0.,12.0,0.,12.0,0.,12.0
1979-07-18 15:59:12.610 ,0,1,0.,12.0,0.,12.0,0.,12.0,0.,12.0
1979-07-18 15:59:24.610 ,0,1,0.,12.0,0.,12.0,0.,12.0,0.,12.0
1979-07-18 15:59:36.610 ,0,0,0.,12.0,0.,12.0,0.,12.0,0.,12.0
1979-07-18 15:59:48.610 ,0,0,0.,12.0,0.,12.0,0.,12.0,0.,12.0
1979-07-18 16:00:00.610 ,0,1,0.,12.0,0.,12.0,0.,12.0,0.,12.0
1979-07-18 16:00:12.610 ,0,1,0.,12.0,0.,12.0,0.,12.0,0.,12.0
1979-07-18 16:00:24.610 ,0,0,0.,12.0,0.,12.0,0.,12.0,0.,12.0
1979-07-18 16:00:36.610 ,0,0,0.,12.0,0.,12.0,0.,12.0,0.,12.0
1979-07-18 16:00:48.610 ,1,1,0.,12.0,0.,12.0,0.,12.0,0.,12.0
1979-07-18 16:01:00.610 ,1,1,0.,12.0,0.,12.0,0.,12.0,0.,12.0
1979-07-18 16:01:12.610 ,1,0,0.,12.0,0.,12.0,0.,12.0,0.,12.0
1979-07-18 16:01:24.610 ,1,0,0.,12.0,0.,12.0,0.,12.0,0.,12.0
1979-07-18 16:01:36.610 ,2,1,0.,12.0,0.,12.0,0.,12.0,0.,12.0
1979-07-18 16:01:48.610 ,2,1,0.,12.0,0.,12.0,0.,12.0,0.,12.0
1979-07-18 16:02:00.610 ,2,0,0.,12.0,0.,12.0,0.,12.0,0.,12.0
1979-07-18 16:02:12.610 ,2,0,0.,12.0,0.,12.0,0.,12.0,0.,12.0
1979-07-18 16:03:12.610 ,0,0,1.,12.0,0.,12.0,0.,12.0,0.,12.0
1979-07-18 16:03:24.610 ,0,0,0.,12.0,0.,12.0,0.,12.0,0.,12.0
1979-07-18 16:03:36.610 ,0,0,0.,12.0,0.,12.0,0.,12.0,0.,12.0
1979-07-18 16:03:48.610 ,0,0,0.,12.0,0.,12.0,0.,12.0,0.,12.0
1979-07-18 16:04:00.610 ,5,1,0.,12.0,0.,12.0,0.,12.0,0.,12.0
1979-07-18 16:04:12.610 ,5,1,0.,12.0,0.,12.0,0.,12.0,0.,12.0
1979-07-18 16:04:24.610 ,5,0,0.,12.0,0.,12.0,0.,12.0,0.,12.0
1979-07-18 16:04:36.610 ,5,0,0.,12.0,0.,12.0,0.,12.0,0.,12.0
1979-07-18 16:04:48.610 ,6,1,0.,12.0,0.,12.0,0.,12.0,0.,12.0
1979-07-18 16:05:00.610 ,6,1,0.,12.0,0.,12.0,0.,12.0,0.,12.0
1979-07-18 16:05:12.610 ,6,0,0.,12.0,0.,12.0,0.,12.0,0.,12.0
1979-07-18 16:05:24.610 ,6,0,0.,12.0,0.,12.0,0.,12.0,0.,12.0
1979-07-18 16:05:36.610 ,7,1,0.,12.0,0.,12.0,0.,12.0,0.,12.0
1979-07-18 16:05:48.610 ,7,1,0.,12.0,0.,12.0,0.,12.0,0.,12.0
1979-07-18 16:06:00.610 ,7,0,0.,12.0,0.,12.0,0.,12.0,0.,12.0
1979-07-18 16:06:12.610 ,7,0,0.,12.0,0.,12.0,0.,12.0,0.,12.0
1979-07-18 16:06:24.610 ,7,1,0.,12.0,0.,12.0,0.,12.0,0.,12.0
1979-07-18 16:06:36.610 ,7,1,0.,12.0,0.,12.0,0.,12.0,0.,12.0
1979-07-18 16:06:48.610 ,7,0,0.,12.0,0.,12.0,0.,12.0,0.,12.0
1979-07-18 16:07:00.610 ,7,0,0.,12.0,0.,12.0,0.,12.0,0.,12.0
1979-07-18 16:07:12.610 ,6,1,0.,12.0,0.,12.0,0.,12.0,0.,12.0
1979-07-18 16:07:24.610 ,6,1,0.,12.0,0.,12.0,0.,12.0,0.,12.0
1979-07-18 16:07:36.610 ,6,0,0.,12.0,0.,12.0,0.,12.0,0.,12.0
1979-07-18 16:07:48.610 ,6,0,0.,12.0,0.,12.0,0.,12.0,0.,12.0
1979-07-18 16:08:00.610 ,5,1,0.,12.0,0.,12.0,0.,12.0,0.,12.0
1979-07-18 16:08:12.610 ,5,1,0.,12.0,0.,12.0,0.,12.0,0.,12.0
1979-07-18 16:08:24.610 ,5,0,0.,12.0,0.,12.0,0.,12.0,0.,12.0
1979-07-18 16:08:36.610 ,5,0,0.,12.0,0.,12.0,0.,12.0,0.,12.0
1979-07-18 16:09:36.610 ,0,0,0.,12.0,0.,12.0,0.,12.0,0.,12.0
1979-07-18 16:09:48.610 ,0,0,0.,12.0,0.,12.0,0.,12.0,0.,12.0
1979-07-18 16:10:00.610 ,0,0,0.,12.0,0.,12.0,0.,12.0,0.,12.0
1979-07-18 16:10:12.610 ,0,0,0.,12.0,0.,12.0,0.,12.0,0.,12.0
1979-07-18 16:10:24.610 ,2,1,0.,12.0,0.,12.0,0.,12.0,0.,12.0
1979-07-18 16:10:36.610 ,2,1,0.,12.0,0.,12.0,0.,12.0,0.,12.0
1979-07-18 16:10:48.610 ,2,0,0.,12.0,0.,12.0,0.,12.0,0.,12.0
1979-07-18 16:11:00.610 ,2,0,0.,12.0,0.,12.0,0.,12.0,0.,12.0
1979-07-18 16:11:12.610 ,1,1,0.,12.0,0.,12.0,0.,12.0,0.,12.0
1979-07-18 16:11:24.610 ,1,1,0.,12.0,0.,12.0,0.,12.0,0.,12.0
1979-07-18 16:11:36.610 ,1,0,0.,12.0,0.,12.0,0.,12.0,0.,12.0
1979-07-18 16:11:48.610 ,1,0,0.,12.0,0.,12.0,0.,12.0,0.,12.0
1979-07-18 16:12:00.610 ,0,1,0.,12.0,0.,12.0,0.,12.0,0.,12.0
1979-07-18 16:12:12.610 ,0,1,0.,12.0,0.,12.0,0.,12.0,0.,12.0
1979-07-18 16:12:24.610 ,0,0,0.,12.0,0.,12.0,0.,12.0,0.,12.0
1979-07-18 16:12:36.610 ,0,0,0.,12.0,0.,12.0,0.,12.0,0.,12.0
1979-07-18 16:13:36.610 ,0,0,0.,12.0,0.,12.0,0.,12.0,0.,12.0
1979-07-18 16:13:48.610 ,0,0,0.,12.0,0.,12.0,0.,12.0,0.,12.0
1979-07-18 16:14:00.610 ,0,0,0.,12.0,0.,12.0,0.,12.0,0.,12.0
1979-07-18 16:14:12.610 ,0,0,0.,12.0,0.,12.0,0.,12.0,0.,12.0
1979-07-18 16:14:24.610 ,2,1,0.,12.0,0.,12.0,0.,12.0,0.,12.0
1979-07-18 16:14:36.610 ,2,1,0.,12.0,0.,12.0,0.,12.0,0.,12.0
1979-07-18 16:14:48.610 ,2,0,0.,12.0,0.,12.0,0.,12.0,0.,12.0
1979-07-18 16:15:00.610 ,2,0,0.,12.0,0.,12.0,0.,12.0,0.,12.0
1979-07-18 16:15:12.610 ,3,1,1.,12.0,0.,12.0,0.,12.0,0.,12.0
1979-07-18 16:15:24.610 ,3,1,0.,12.0,0.,12.0,0.,12.0,0.,12.0
1979-07-18 16:15:36.610 ,3,0,1.,12.0,0.,12.0,0.,12.0,0.,12.0
1979-07-18 16:15:48.610 ,3,0,0.,12.0,0.,12.0,0.,12.0,0.,12.0
1979-07-18 16:16:48.610 ,0,0,0.,12.0,0.,12.0,0.,12.0,0.,12.0
1979-07-18 16:17:00.610 ,0,0,0.,12.0,0.,12.0,0.,12.0,0.,12.0
1979-07-18 16:17:12.610 ,0,0,0.,12.0,0.,12.0,0.,12.0,0.,12.0
1979-07-18 16:17:24.610 ,0,0,1.,12.0,0.,12.0,0.,12.0,0.,12.0
1979-07-18 16:17:36.610 ,6,1,0.,12.0,0.,12.0,0.,12.0,0.,12.0
1979-07-18 16:17:48.610 ,6,1,0.,12.0,0.,12.0,0.,12.0,0.,12.0
1979-07-18 16:18:00.610 ,6,0,0.,12.0,0.,12.0,0.,12.0,0.,12.0
1979-07-18 16:18:12.610 ,6,0,0.,12.0,0.,12.0,0.,12.0,0.,12.0
1979-07-18 16:18:24.610 ,7,0,0.,12.0,0.,12.0,0.,12.0,0.,12.0
1979-07-18 16:18:36.610 ,7,0,0.,12.0,0.,12.0,0.,12.0,0.,12.0
1979-07-18 16:18:48.610 ,7,0,0.,12.0,0.,12.0,0.,12.0,0.,12.0
1979-07-18 16:19:00.610 ,7,0,0.,12.0,0.,12.0,0.,12.0,0.,12.0
1979-07-18 16:19:12.610 ,4,1,0.,12.0,0.,12.0,0.,12.0,0.,12.0
1979-07-18 16:19:24.610 ,4,1,0.,12.0,0.,12.0,0.,12.0,0.,12.0
1979-07-18 16:19:36.610 ,0,1,1.,12.0,0.,12.0,0.,12.0,0.,12.0
1979-07-18 16:19:48.610 ,0,1,0.,12.0,0.,12.0,0.,12.0,0.,12.0
1979-07-18 16:20:00.610 ,3,1,0.,12.0,0.,12.0,0.,12.0,0.,12.0
1979-07-18 16:20:12.610 ,3,1,0.,12.0,0.,12.0,0.,12.0,0.,12.0
1979-07-18 16:20:24.610 ,7,1,0.,12.0,0.,12.0,0.,12.0,0.,12.0
1979-07-18 16:20:36.610 ,7,1,0.,12.0,0.,12.0,0.,12.0,0.,12.0
1979-07-18 16:20:48.610 ,4,1,0.,12.0,0.,12.0,0.,12.0,0.,12.0
1979-07-18 16:21:00.610 ,4,1,0.,12.0,0.,12.0,0.,12.0,0.,12.0
1979-07-18 16:21:12.610 ,0,1,0.,12.0,0.,12.0,0.,12.0,0.,12.0
1979-07-18 16:21:24.610 ,0,1,0.,12.0,0.,12.0,0.,12.0,0.,12.0
1979-07-18 16:21:36.610 ,3,1,0.,12.0,0.,12.0,0.,12.0,0.,12.0
1979-07-18 16:21:48.610 ,3,1,0.,12.0,0.,12.0,0.,12.0,0.,12.0
1979-07-18 16:22:00.610 ,7,1,0.,12.0,0.,12.0,0.,12.0,0.,12.0
1979-07-18 16:22:12.610 ,7,1,0.,12.0,0.,12.0,0.,12.0,0.,12.0
1979-07-18 16:23:12.610 ,0,0,0.,12.0,0.,12.0,0.,12.0,0.,12.0
1979-07-18 16:23:24.610 ,0,0,0.,12.0,0.,12.0,0.,12.0,0.,12.0
1979-07-18 16:23:36.610 ,7,1,0.,12.0,0.,12.0,0.,12.0,0.,12.0
1979-07-18 16:23:48.610 ,7,1,0.,12.0,0.,12.0,0.,12.0,0.,12.0